Location: Bastrop State Park
(30.1090°N, 97.2819°W)
Time: 17:44:55
(UTC-05:00)

ISS - Visible Passes

Search period start: 24 April 2018 00:00
Search period end: 04 May 2018 00:00
Orbit: 403 x 406 km, 51.6° (Epoch: 25 April)

Date Brightness Start Highest point End Pass type
(mag) Time Alt. Az. Time Alt. Az. Time Alt. Az.
27 Apr -1.7 06:17:02 10° S 06:19:44 24° SE 06:22:27 10° ENE visible
28 Apr -0.9 05:26:39 10° SE 05:27:37 11° SE 05:28:35 10° ESE visible
29 Apr -3.8 06:08:12 10° SW 06:11:27 82° SE 06:14:43 10° NE visible
30 Apr -2.5 05:18:18 27° SSE 05:19:13 32° SE 05:22:10 10° ENE visible
01 May -0.8 04:28:18 12° E 04:28:18 12° E 04:28:56 10° E visible
01 May -2.7 06:00:58 14° W 06:03:16 31° NW 06:06:14 10° NNE visible
02 May -3.9 05:10:51 73° NW 05:10:53 73° NW 05:14:08 10° NE visible
03 May -1.0 04:20:39 18° ENE 04:20:39 18° ENE 04:21:43 10° ENE visible
03 May -1.4 05:53:27 10° WNW 05:55:13 14° NW 05:56:58 10° N visible
